| time (UTC) | temp F | wind direction | speed knots | gust knots | rain 1hr in | rain 24hr in | rain mn in | humidity % | barometer mb |
| 20260510044515 | 72 | 101 | 0.0 | 0.0 | 0.00 | 0.01 | 0.01 | 78 | 1011.5 |
| 20260510043018 | 72 | 101 | 0.0 | 0.0 | 0.00 | 0.01 | 0.01 | 78 | 1011.5 |
| 20260510041517 | 72 | 122 | 0.0 | 0.0 | 0.00 | 0.01 | 0.01 | 77 | 1011.5 |
| 20260510040016 | 73 | 122 | 0.0 | 0.0 | 0.00 | 0.01 | 0.01 | 75 | 1011.4 |
| 20260510034519 | 74 | 122 | 0.0 | 0.0 | 0.00 | 0.01 | 0.01 | 73 | 1011.2 |
| 20260510033015 | 75 | 122 | 0.0 | 0.0 | 0.00 | 0.01 | 0.01 | 71 | 1011.1 |
| 20260510031526 | 76 | 122 | 0.0 | 0.0 | 0.00 | 0.01 | 0.01 | 69 | 1010.9 |
| 20260510030018 | 77 | 122 | 0.0 | 0.0 | 0.00 | 0.01 | 0.01 | 68 | 1010.8 |
| 20260510024518 | 77 | 122 | 0.0 | 1.7 | 0.00 | 0.01 | 0.01 | 67 | 1010.7 |
| 20260510023018 | 78 | 80 | 1.7 | 5.2 | 0.00 | 0.01 | 0.01 | 66 | 1010.6 |
| 20260510021532 | 78 | 104 | 1.7 | 6.1 | 0.00 | 0.01 | 0.01 | 65 | 1010.4 |
| 20260510020025 | 79 | 84 | 1.7 | 6.1 | 0.00 | 0.01 | 0.01 | 63 | 1010.2 |
| 20260510014523 | 80 | 94 | 2.6 | 5.2 | 0.00 | 0.01 | 0.01 | 60 | 1009.9 |
| 20260510013018 | 82 | 112 | 2.6 | 3.5 | 0.00 | 0.01 | 0.01 | 57 | 1009.7 |
| 20260510011520 | 83 | 91 | 2.6 | 7.8 | 0.00 | 0.01 | 0.01 | 56 | 1009.5 |
| 20260510010023 | 85 | 93 | 0.9 | 3.5 | 0.00 | 0.01 | 0.01 | 56 | 1009.2 |
| 20260510004521 | 87 | 87 | 1.7 | 5.2 | 0.00 | 0.01 | 0.01 | 52 | 1009.0 |
| 20260510003023 | 88 | 150 | 0.0 | 6.1 | 0.00 | 0.01 | 0.01 | 45 | 1008.9 |
| 20260510001535 | 89 | 120 | 3.5 | 6.1 | 0.00 | 0.01 | 0.01 | 42 | 1008.8 |
| 20260510000024 | 89 | 120 | 0.9 | 6.1 | 0.00 | 0.01 | 0.01 | 44 | 1008.6 |
| 20260509234522 | 90 | 134 | 2.6 | 8.7 | 0.00 | 0.01 | 0.01 | 43 | 1008.5 |
| 20260509231508 | 93 | 100 | 3.5 | 9.6 | 0.00 | 0.01 | 0.01 | 43 | 1008.3 |
| 20260509230011 | 93 | 99 | 0.9 | 2.6 | 0.00 | 0.01 | 0.01 | 42 | 1008.5 |
| 20260509223021 | 94 | 73 | 0.0 | 3.5 | 0.00 | 0.01 | 0.01 | 42 | 1008.4 |
| 20260509221526 | 93 | 343 | 0.9 | 4.3 | 0.00 | 0.01 | 0.01 | 38 | 1008.4 |
| 20260509220009 | 93 | 277 | 2.6 | 6.1 | 0.00 | 0.01 | 0.01 | 38 | 1008.5 |
| 20260509211526 | 93 | 308 | 1.7 | 7.8 | 0.00 | 0.01 | 0.01 | 44 | 1008.8 |
| 20260509210026 | 93 | 149 | 0.9 | 5.2 | 0.00 | 0.01 | 0.01 | 47 | 1009.0 |
| 20260509203017 | 91 | 200 | 1.7 | 7.0 | 0.00 | 0.01 | 0.01 | 50 | 1009.4 |
| 20260509200022 | 89 | 213 | 0.0 | 6.1 | 0.00 | 0.01 | 0.01 | 49 | 1009.7 |
| 20260509194533 | 90 | 166 | 3.5 | 5.2 | 0.00 | 0.01 | 0.01 | 52 | 1010.0 |
| 20260509193023 | 90 | 145 | 1.7 | 5.2 | 0.00 | 0.01 | 0.01 | 51 | 1010.4 |
| 20260509184528 | 88 | 233 | 2.6 | 5.2 | 0.00 | 0.01 | 0.01 | 58 | 1010.8 |
| 20260509180024 | 87 | 194 | 1.7 | 7.0 | 0.00 | 0.01 | 0.01 | 62 | 1011.2 |
| 20260509174507 | 85 | 211 | 1.7 | 5.2 | 0.00 | 0.01 | 0.01 | 66 | 1011.3 |
| 20260509171516 | 83 | 148 | 0.9 | 3.5 | 0.00 | 0.01 | 0.01 | 69 | 1011.6 |
| 20260509170023 | 81 | 351 | 0.0 | 3.5 | 0.00 | 0.01 | 0.01 | 72 | 1011.6 |
| 20260509163018 | 80 | 268 | 0.9 | 3.5 | 0.00 | 0.01 | 0.01 | 77 | 1012.0 |
| 20260509160022 | 76 | 226 | 1.7 | 3.5 | 0.00 | 0.01 | 0.01 | 88 | 1012.4 |
| 20260509151513 | 73 | 204 | 2.6 | 6.1 | 0.00 | 0.01 | 0.01 | 94 | 1011.9 |
| 20260509144524 | 71 | 117 | 0.0 | 0.0 | 0.00 | 0.01 | 0.01 | 94 | 1012.4 |
| 20260509143026 | 71 | 339 | 0.0 | 1.7 | 0.00 | 0.01 | 0.01 | 94 | 1012.2 |
| 20260509134518 | 71 | 350 | 0.0 | 2.6 | 0.00 | 0.01 | 0.01 | 94 | 1011.6 |
| 20260509133026 | 71 | 33 | 0.9 | 2.6 | 0.00 | 0.01 | 0.01 | 94 | 1011.6 |
| 20260509131534 | 71 | 73 | 0.0 | 0.0 | 0.00 | 0.01 | 0.01 | 94 | 1011.7 |
| 20260509130029 | 71 | 28 | 0.0 | 1.7 | 0.00 | 0.01 | 0.01 | 94 | 1011.7 |
| 20260509124526 | 71 | 337 | 0.0 | 1.7 | 0.00 | 0.01 | 0.01 | 94 | 1011.8 |
| 20260509121536 | 70 | 9 | 0.9 | 5.2 | 0.00 | 0.01 | 0.01 | 94 | 1011.8 |
| 20260509120033 | 71 | 9 | 2.6 | 7.0 | 0.00 | 0.01 | 0.01 | 94 | 1011.5 |
| 20260509114516 | 71 | 50 | 0.9 | 3.5 | 0.00 | 0.01 | 0.01 | 94 | 1011.5 |
| 20260509113019 | 71 | 36 | 0.9 | 3.5 | 0.00 | 0.01 | 0.01 | 94 | 1012.0 |
| 20260509111524 | 71 | 350 | 1.7 | 3.5 | 0.01 | 0.01 | 0.01 | 94 | 1011.9 |
| 20260509110009 | 71 | 24 | 0.0 | 0.0 | 0.01 | 0.01 | 0.01 | 94 | 1011.5 |
| 20260509100031 | 71 | 9 | 0.0 | 0.0 | 0.00 | 0.00 | 0.00 | 93 | 1010.8 |
| 20260509094514 | 71 | 9 | 0.9 | 3.5 | 0.00 | 0.00 | 0.00 | 93 | 1010.8 |
| 20260509093016 | 71 | 5 | 0.9 | 2.6 | 0.00 | 0.00 | 0.00 | 93 | 1010.3 |
| 20260509091523 | 71 | 75 | 0.0 | 0.0 | 0.00 | 0.00 | 0.00 | 93 | 1010.3 |
| 20260509090026 | 71 | 105 | 0.0 | 0.0 | 0.00 | 0.00 | 0.00 | 93 | 1010.2 |
| 20260509084515 | 71 | 105 | 0.0 | 0.0 | 0.00 | 0.00 | 0.00 | 93 | 1010.6 |
| 20260509083014 | 71 | 105 | 0.0 | 0.0 | 0.00 | 0.00 | 0.00 | 93 | 1010.6 |
| 20260509081522 | 71 | 105 | 0.0 | 1.7 | 0.00 | 0.00 | 0.00 | 93 | 1010.8 |
| 20260509074526 | 71 | 110 | 0.0 | 0.0 | 0.00 | 0.00 | 0.00 | 93 | 1010.1 |
| 20260509073014 | 71 | 146 | 0.0 | 0.0 | 0.00 | 0.00 | 0.00 | 93 | 1010.3 |
| 20260509071517 | 71 | 192 | 0.0 | 4.3 | 0.00 | 0.00 | 0.00 | 93 | 1010.3 |
| 20260509070023 | 71 | 188 | 0.0 | 0.0 | 0.00 | 0.00 | 0.00 | 93 | 1010.6 |
| 20260509063027 | 71 | 171 | 0.0 | 2.6 | 0.00 | 0.00 | 0.00 | 93 | 1010.7 |
| 20260509061533 | 70 | 164 | 0.0 | 1.7 | 0.00 | 0.00 | 0.00 | 92 | 1010.7 |
| 20260509060021 | 70 | 187 | 0.9 | 3.5 | 0.00 | 0.00 | 0.00 | 92 | 1010.8 |
| 20260509054526 | 70 | 194 | 0.9 | 2.6 | 0.00 | 0.00 | 0.00 | 92 | 1011.2 |
| 20260509053027 | 70 | 130 | 0.0 | 2.6 | 0.00 | 0.00 | 0.00 | 92 | 1011.1 |
| 20260509051526 | 69 | 144 | 0.0 | 1.7 | 0.00 | 0.00 | 0.00 | 92 | 1011.4 |
| 20260509050018 | 69 | 190 | 0.0 | 2.6 | 0.00 | 0.00 | 0.00 | 92 | 1011.5 |